Location: Newark
(13.0000°N, 151.6000°E)
Time: 09:14:39
(UTC+00:00)

LightSail 2 - Visible Passes

Search period start: 08 April 2020 00:00
Search period end: 18 April 2020 00:00
Orbit: 694 x 724 km, 24.0° (Epoch: 07 April)

Date Brightness Start Highest point End Pass type
(mag) Time Alt. Az. Time Alt. Az. Time Alt. Az.
08 Apr 6.6 17:45:02 27° N 17:45:02 27° N 17:48:37 10° NE visible
09 Apr 8.2 16:49:18 11° NE 16:49:18 11° NE 16:49:25 10° NE visible
09 Apr 6.9 18:28:11 15° NW 18:30:55 23° N 18:34:51 10° NE visible
10 Apr 7.0 17:32:28 22° NNE 17:32:28 22° NNE 17:35:27 10° NE visible
10 Apr 6.9 19:13:26 10° NW 19:17:32 25° N 19:21:39 10° ENE visible
11 Apr 6.9 18:15:38 17° NW 18:18:02 23° N 18:22:00 10° NE visible
12 Apr 7.3 17:19:56 20° NNE 17:19:56 20° NNE 17:22:26 10° NE visible
12 Apr 6.6 19:00:10 10° NW 19:04:35 30° NNE 19:08:59 10° ENE visible
13 Apr 6.8 18:03:11 21° NNW 18:05:05 26° N 18:09:17 10° ENE visible
14 Apr 7.5 17:07:35 19° NE 17:07:35 19° NE 17:09:36 10° ENE visible
14 Apr 6.2 18:46:46 10° NW 18:51:31 40° NNE 18:56:14 10° E visible
15 Apr 6.4 17:50:56 29° NNW 17:52:03 32° NNE 17:56:34 10° ENE visible
16 Apr 6.8 09:45:06 10° SSW 09:47:22 20° S 09:47:22 20° S visible
16 Apr 7.7 16:55:28 17° ENE 16:55:28 17° ENE 16:56:51 10° ENE visible
16 Apr 5.5 18:34:22 16° WNW 18:38:19 60° NNE 18:43:18 10° E visible
17 Apr 6.8 08:46:33 10° SSW 08:50:02 18° SSE 08:52:16 14° ESE visible
17 Apr 7.5 10:30:14 10° WSW 10:31:13 16° SW 10:31:13 16° SW visible
17 Apr 5.9 17:38:59 45° NNE 17:38:59 45° NNE 17:43:44 10° E visible
